Retour au catalogue

SL-8 DEB

ActifLEO
NORAD 13261·DEBRIS·🇷🇺 Russia

Lancé Jun 6, 1982 depuis Plesetsk Cosmodrome

Loading…

Prochains Passages (prochaines 24 heures)

TLE

FraisSource: Space-Track

Époque: Sep 14, 2026, 05:08 UTC

1 13261U 82055C   26257.21409737 -.00000028  00000-0  56770-4 0  9998
2 13261  65.8375 341.6438 0020397 290.7554  88.6022 13.72898959218346

Suivez SL-8 DEB en temps réel avec AllMySat

Download on the App Store